Wind_Speed
39 39 39 39 39 38 38 39 39 39 39 38 39 41 41 41 41 42 42 42 41 41 41 42 42 41 41 41 41 41 40 40 41 40 40 40 39 39 39 39 39 39 39
39 40 40 41 40 40 40 40 40 40 40 40 40 40 42 42 42 42 43 43 43 43 42 42 42 42 42 42 43 43 43 43 43 43 43 42 41 41 41 41 40 41 41
39 40 41 41 41 41 41 41 41 41 41 42 42 42 42 43 43 43 44 44 45 44 44 43 43 44 44 44 44 44 44 44 44 45 45 44 43 42 42 42 42 42 42
40 41 41 42 42 42 42 42 42 43 43 42 43 43 43 43 43 44 45 45 46 45 45 45 45 45 45 45 46 46 46 46 45 45 46 46 45 45 44 44 44 43 44
40 41 42 42 43 43 43 43 43 44 43 43 43 43 44 44 45 45 46 46 46 46 47 47 46 46 46 46 47 48 47 47 47 46 46 47 47 47 47 46 46 46 46
40 41 42 43 43 44 44 44 44 44 44 44 45 45 45 45 46 46 47 48 48 48 48 48 48 48 48 49 49 49 50 50 49 49 49 49 49 49 50 49 49 49 48
40 41 42 42 43 44 44 45 45 45 46 46 46 46 46 46 47 48 48 48 49 49 49 49 48 49 50 51 51 51 51 51 50 51 51 50 51 51 51 51 51 51 50
40 41 42 42 43 44 45 45 45 46 46 47 47 47 47 48 48 49 49 49 49 50 50 50 50 50 51 52 52 52 52 52 52 52 52 52 52 52 52 52 52 52 52
39 41 42 42 43 43 44 45 45 46 47 47 48 48 49 49 50 50 51 51 50 50 50 51 52 51 52 52 53 53 53 52 52 52 52 52 53 53 53 54 54 54 53
38 39 41 41 42 43 44 44 45 46 47 48 48 49 49 50 51 51 52 52 52 52 52 52 52 52 53 53 53 54 54 54 53 53 53 53 54 55 56 56 55 55 55
37 38 40 41 41 41 42 43 44 45 46 46 47 47 48 50 50 51 52 53 53 53 53 53 53 53 54 53 54 55 55 55 54 54 55 56 56 56 57 57 56 56 55
36 37 38 39 40 40 41 42 43 44 45 45 46 46 47 47 48 49 50 52 53 54 54 54 53 54 54 54 55 55 55 55 55 55 56 56 56 56 56 56 56 56 56
36 36 37 38 39 40 41 41 41 42 43 43 44 44 44 46 47 48 48 49 51 52 53 53 54 54 55 55 54 54 55 55 56 56 57 56 56 56 56 56 56 56 56
36 36 37 38 38 39 40 41 41 41 41 42 43 44 45 45 47 48 48 48 49 49 51 51 53 54 54 54 55 55 55 55 55 56 57 57 57 57 56 56 56 56 56
36 36 37 38 38 39 39 40 41 42 42 42 43 44 45 46 47 47 48 48 49 49 49 50 51 52 53 54 54 55 55 55 55 55 56 56 57 58 57 57 56 56 56
36 36 36 37 38 39 39 40 41 41 42 42 43 43 44 45 46 47 47 47 48 49 49 50 50 51 51 53 54 54 54 55 55 56 56 56 56 56 57 57 57 57 56
35 35 36 36 37 38 38 39 40 41 42 42 43 44 44 45 46 46 46 47 48 48 49 50 50 51 51 52 53 53 54 54 54 54 54 54 55 55 56 56 57 57 57
36 36 36 36 37 38 38 39 40 41 41 42 43 43 44 45 46 46 46 47 48 48 49 50 50 51 52 52 52 52 53 53 53 54 53 53 53 54 55 55 55 56 57
36 37 38 38 37 38 38 39 40 40 41 42 43 43 43 44 45 45 46 47 48 48 49 49 50 51 51 52 52 53 54 54 53 54 53 53 53 54 55 55 55 55 55
36 36 37 38 38 39 39 40 41 41 42 43 43 43 43 44 44 45 45 46 47 48 48 48 49 51 51 52 53 53 54 54 53 53 54 53 53 53 54 54 54 54 54
37 38 38 38 39 39 39 40 41 41 42 42 43 43 44 44 44 44 45 45 46 46 47 48 48 49 49 51 52 53 53 53 53 53 53 53 53 53 53 53 53 53 53
37 38 39 39 39 39 39 39 40 40 41 41 41 42 43 43 43 44 44 44 44 45 45 46 46 47 47 48 49 50 50 51 52 52 52 53 53 52 52 53 53 53 53
37 37 37 38 37 37 38 38 38 38 38 38 38 39 40 41 41 41 42 42 43 43 44 44 44 45 46 47 47 47 48 49 50 50 51 52 52 52 53 53 52 52 52
36 36 37 37 36 36 36 36 37 37 37 37 37 37 38 39 39 39 40 41 41 41 42 42 43 43 44 45 46 47 47 47 48 49 49 50 50 50 51 51 50 51 51
35 35 35 35 35 35 35 35 35 35 35 35 36 36 37 37 36 36 37 38 39 40 40 41 42 42 43 44 45 46 46 47 47 47 47 47 47 48 48 49 49 48 49
35 35 34 34 34 34 34 34 34 34 34 34 34 35 35 35 36 36 36 37 37 39 40 40 41 41 42 43 44 45 45 45 45 45 45 45 45 46 47 47 48 48 48
Wind_Direction
257 256 255 254 254 254 254 254 254 253 253 254 254 253 252 251 251 251 253 255 256 257 257 258 258 258 258 257 257 258 257 258 257 258 259 260 260 259 260 261 262 263 264
257 257 257 255 255 255 255 254 254 254 254 253 254 254 253 252 252 252 254 255 255 255 257 257 257 258 257 258 258 258 258 258 258 258 258 258 259 259 260 261 262 263 264
258 258 257 256 255 256 255 255 255 254 254 254 253 253 254 253 252 252 253 254 255 255 256 257 257 258 258 258 259 259 259 260 259 259 260 260 259 259 260 261 262 263 264
258 258 257 256 255 255 256 256 256 256 255 254 253 253 253 253 253 254 254 254 255 255 256 257 258 258 258 258 259 259 261 261 261 261 260 261 261 261 260 262 262 263 265
259 258 258 257 256 256 256 257 256 256 255 254 254 254 253 253 253 254 254 255 255 255 256 257 258 258 258 258 258 259 259 259 260 260 260 260 261 261 262 262 263 264 265
261 259 258 258 256 257 257 257 257 256 255 255 255 255 254 253 253 254 255 255 255 256 256 257 257 257 258 258 259 258 258 259 260 260 261 261 262 262 263 263 263 264 264
263 261 260 259 258 258 258 257 257 257 256 256 256 255 255 254 254 254 254 255 255 255 256 256 257 257 258 258 258 259 260 259 261 261 261 262 263 263 264 264 264 265 265
264 263 261 260 259 258 258 257 257 257 256 256 256 256 256 255 255 255 254 255 256 256 255 256 257 257 258 259 259 260 260 260 260 261 262 263 264 264 265 265 265 265 265
266 264 262 261 260 259 258 258 258 257 256 256 256 257 256 256 256 256 255 255 255 256 256 257 258 258 258 258 258 259 259 260 261 262 262 263 263 264 265 265 265 266 266
268 265 263 261 261 260 259 258 258 258 257 256 255 256 257 256 256 256 256 255 255 255 256 257 257 258 258 258 259 259 260 260 260 261 262 263 263 264 265 265 266 266 266
270 266 264 263 262 261 261 260 259 259 258 257 257 257 257 256 256 256 256 256 256 255 256 256 257 258 258 259 259 259 260 260 261 262 264 264 265 266 266 266 266 266 266
272 269 266 265 265 263 262 262 261 260 260 259 259 259 259 258 257 257 257 258 258 257 257 258 258 259 259 259 260 260 260 261 262 263 264 264 264 265 266 266 266 266 267
274 272 270 268 267 266 264 262 262 261 261 261 261 260 260 260 259 258 258 258 258 258 258 258 259 260 261 261 261 261 261 262 263 264 265 265 264 265 265 265 266 266 267
277 274 272 270 269 267 265 263 263 264 264 263 263 263 262 261 260 259 259 259 259 259 259 259 260 260 260 261 262 262 262 263 264 265 266 266 265 264 264 264 265 265 266
278 276 272 270 268 268 266 264 264 265 266 266 265 265 264 263 262 261 261 261 261 261 260 260 261 261 261 261 261 262 263 264 265 266 266 266 265 265 264 264 264 266 266
280 278 274 271 269 268 267 266 266 266 266 266 266 266 265 265 264 263 263 262 263 262 262 262 262 262 263 263 263 263 263 264 265 266 266 266 265 265 265 265 265 266 266
280 279 276 273 270 269 268 267 266 266 267 266 266 266 265 265 265 265 265 264 264 264 264 264 263 263 264 266 266 265 265 265 266 265 265 265 265 265 265 266 266 266 266
280 278 277 275 272 269 267 268 268 267 267 267 267 267 266 266 265 266 267 267 267 267 266 266 265 264 264 265 265 266 267 267 267 266 265 265 265 266 266 266 266 266 266
281 280 278 276 273 271 269 269 269 268 268 268 268 268 268 268 268 268 268 268 268 268 268 268 267 266 265 266 266 266 267 267 267 267 266 265 265 266 266 265 265 265 266
283 281 279 277 275 273 271 271 270 270 269 269 268 269 269 270 270 269 269 269 269 269 270 270 270 269 269 268 267 267 267 267 267 266 266 265 265 265 265 266 265 265 265
283 282 281 279 276 274 273 272 271 271 271 270 270 270 271 271 271 271 270 270 271 271 271 271 271 271 270 269 269 268 268 267 267 266 266 265 265 266 265 265 265 265 265
283 283 281 280 278 275 274 273 272 272 271 271 271 271 272 273 273 272 271 272 272 271 271 272 271 271 270 270 269 269 269 268 267 266 265 265 265 264 264 264 264 264 265
283 283 282 280 278 276 275 274 273 273 272 272 272 273 273 273 273 272 271 272 273 273 272 272 271 271 271 271 271 271 271 270 269 267 266 265 265 264 264 264 264 264 264
284 284 283 281 280 278 276 275 273 272 273 273 273 274 275 274 273 273 272 272 273 273 274 273 273 273 274 274 273 272 272 271 270 269 268 266 265 264 264 263 264 263 263
285 285 284 282 281 279 277 275 274 273 273 274 274 275 276 275 274 274 274 274 275 275 275 275 275 275 275 275 274 273 272 272 271 270 268 267 265 264 264 263 263 263 263
285 285 285 284 283 280 277 275 274 274 274 274 276 276 277 276 276 276 276 276 277 277 277 278 277 277 276 276 275 275 274 272 271 270 269 268 266 265 264 264 263 263 262
Height
5693 5694 5695 5696 5698 5700 5701 5703 5704 5706 5708 5709 5711 5713 5715 5717 5719 5722 5724 5726 5728 5730 5732 5734 5736 5738 5739 5741 5743 5744 5746 5748 5749 5751 5752 5753 5755 5756 5757 5759 5760 5761 5762
5683 5685 5686 5687 5689 5690 5692 5693 5695 5696 5698 5700 5701 5703 5705 5707 5709 5711 5714 5716 5718 5720 5722 5724 5726 5728 5729 5731 5733 5734 5736 5738 5739 5741 5742 5744 5746 5746 5747 5748 5749 5751 5752
5674 5675 5676 5677 5679 5680 5682 5683 5685 5686 5688 5689 5691 5692 5694 5696 5699 5701 5703 5705 5708 5710 5712 5714 5715 5717 5719 5721 5722 5724 5726 5727 5728 5730 5732 5733 5735 5736 5737 5738 5739 5740 5741
5663 5664 5666 5667 5668 5670 5672 5673 5675 5676 5677 5679 5680 5682 5684 5686 5688 5691 5693 5695 5697 5699 5701 5703 5705 5706 5708 5710 5711 5713 5714 5716 5717 5719 5720 5722 5723 5725 5727 5728 5728 5729 5729
5653 5654 5655 5657 5658 5659 5661 5662 5664 5665 5667 5668 5670 5671 5673 5675 5678 5680 5682 5684 5686 5688 5690 5692 5694 5695 5697 5698 5700 5701 5703 5704 5706 5707 5708 5710 5711 5713 5714 5716 5717 5718 5718
5642 5643 5644 5646 5647 5648 5649 5651 5652 5654 5656 5657 5659 5660 5662 5664 5666 5668 5670 5672 5674 5676 5678 5680 5682 5683 5685 5686 5688 5689 5690 5692 5693 5695 5696 5697 5699 5700 5701 5703 5705 5705 5706
5632 5632 5633 5635 5636 5637 5638 5639 5641 5642 5644 5645 5647 5649 5651 5652 5654 5657 5658 5660 5662 5664 5666 5667 5669 5670 5672 5673 5674 5676 5677 5678 5680 5682 5683 5684 5685 5686 5687 5689 5690 5691 5692
5620 5621 5622 5623 5624 5625 5626 5628 5629 5630 5632 5633 5635 5637 5639 5640 5642 5644 5646 5648 5650 5651 5653 5654 5656 5658 5659 5660 5661 5663 5664 5665 5667 5668 5669 5670 5671 5672 5673 5674 5675 5677 5678
5608 5609 5610 5611 5612 5613 5614 5616 5617 5618 5620 5621 5623 5624 5626 5628 5629 5631 5633 5635 5636 5638 5640 5641 5643 5644 5645 5646 5648 5649 5650 5651 5653 5654 5655 5656 5657 5658 5659 5659 5660 5661 5663
5598 5598 5599 5599 5600 5601 5602 5603 5604 5606 5607 5609 5610 5611 5613 5615 5616 5618 5619 5621 5623 5625 5626 5628 5629 5630 5631 5633 5634 5635 5636 5637 5638 5639 5641 5641 5642 5643 5644 5644 5645 5645 5647
5587 5587 5587 5588 5589 5590 5590 5591 5592 5593 5595 5596 5597 5598 5599 5601 5602 5604 5605 5607 5609 5611 5612 5614 5615 5616 5617 5618 5619 5621 5622 5623 5624 5625 5625 5626 5627 5628 5628 5629 5630 5630 5631
5577 5577 5577 5577 5578 5578 5579 5579 5580 5581 5582 5583 5584 5585 5587 5588 5589 5590 5592 5593 5595 5596 5598 5599 5601 5602 5603 5604 5605 5606 5607 5608 5609 5610 5610 5611 5612 5613 5613 5614 5614 5615 5615
5566 5566 5566 5566 5567 5567 5567 5568 5569 5570 5570 5571 5572 5573 5574 5575 5576 5577 5578 5580 5581 5582 5583 5585 5586 5588 5589 5590 5591 5592 5593 5593 5594 5595 5595 5596 5596 5597 5598 5598 5599 5600 5600
5556 5556 5555 5555 5555 5556 5556 5557 5558 5558 5559 5560 5560 5561 5562 5563 5563 5564 5565 5566 5567 5568 5569 5570 5571 5573 5574 5575 5576 5577 5578 5579 5579 5580 5580 5580 5581 5582 5582 5583 5584 5584 5585
5546 5545 5545 5544 5544 5545 5545 5546 5546 5547 5548 5548 5549 5549 5549 5550 5550 5551 5552 5553 5554 5555 5556 5557 5557 5558 5559 5560 5561 5562 5563 5563 5564 5564 5565 5565 5565 5566 5566 5567 5568 5569 5569
5536 5535 5534 5533 5533 5534 5534 5534 5535 5535 5536 5537 5537 5537 5537 5538 5538 5538 5539 5540 5540 5541 5542 5543 5543 5544 5545 5545 5546 5547 5547 5548 5549 5549 5549 5549 5550 5550 5551 5552 5552 5553 5554
5525 5524 5523 5523 5522 5522 5522 5523 5523 5523 5524 5524 5525 5525 5525 5525 5525 5526 5526 5527 5527 5527 5528 5529 5529 5530 5530 5530 5531 5531 5532 5532 5533 5534 5534 5534 5535 5535 5536 5536 5537 5538 5538
5515 5514 5513 5512 5511 5511 5511 5511 5511 5512 5512 5512 5512 5512 5512 5513 5513 5513 5513 5513 5513 5514 5514 5514 5515 5516 5516 5516 5516 5516 5517 5517 5518 5518 5519 5519 5520 5520 5520 5521 5521 5522 5523
5505 5504 5503 5502 5501 5500 5500 5500 5499 5500 5500 5500 5499 5499 5500 5500 5500 5500 5499 5499 5500 5500 5499 5500 5500 5500 5501 5501 5501 5501 5502 5502 5502 5503 5503 5503 5504 5505 5505 5506 5507 5507 5508
5495 5493 5492 5490 5489 5489 5488 5488 5488 5488 5487 5487 5487 5487 5487 5487 5487 5486 5486 5486 5486 5485 5485 5485 5485 5485 5485 5485 5485 5485 5486 5487 5487 5487 5488 5488 5489 5489 5489 5489 5490 5492 5493
5484 5482 5481 5479 5478 5477 5476 5476 5476 5475 5475 5475 5475 5474 5474 5474 5473 5473 5473 5472 5472 5472 5472 5472 5471 5471 5470 5470 5470 5469 5470 5470 5471 5471 5472 5472 5472 5472 5472 5473 5474 5476 5477
5473 5471 5469 5468 5466 5465 5465 5464 5464 5463 5463 5463 5462 5462 5462 5461 5460 5460 5459 5459 5458 5458 5458 5457 5457 5456 5455 5455 5454 5454 5453 5453 5454 5455 5455 5456 5456 5456 5457 5457 5458 5460 5461
5462 5460 5458 5457 5455 5454 5453 5453 5452 5451 5451 5451 5450 5450 5449 5448 5447 5447 5446 5446 5445 5445 5445 5444 5443 5443 5442 5441 5440 5439 5438 5438 5438 5438 5438 5439 5439 5440 5441 5442 5443 5444 5445
5451 5449 5447 5445 5444 5443 5442 5441 5441 5440 5440 5439 5439 5438 5437 5436 5435 5435 5434 5434 5433 5432 5432 5431 5430 5429 5428 5427 5426 5425 5424 5423 5423 5422 5423 5423 5423 5424 5425 5426 5427 5428 5430
5440 5438 5436 5435 5433 5432 5431 5430 5429 5429 5428 5428 5427 5426 5426 5425 5424 5423 5422 5422 5421 5420 5419 5418 5417 5416 5415 5413 5411 5410 5410 5409 5408 5407 5408 5408 5408 5409 5410 5411 5412 5414 5415
5430 5428 5426 5424 5422 5421 5420 5419 5418 5418 5418 5417 5416 5415 5415 5414 5413 5412 5411 5409 5409 5407 5406 5404 5403 5402 5401 5399 5397 5396 5395 5394 5393 5393 5393 5394 5394 5395 5395 5396 5398 5399 5400